timestamp,wind_dir_avg,wind_spd_avg,wind_spd_max_dir,wind_spd_gust,battery_voltage,lat,long
2022-12-05 00:04:00+00:00,160.0,11.69,159.0,14.16,12.41,47.59359,-54.27349
2022-12-05 00:14:00+00:00,157.0,14.84,156.0,17.55,12.41,47.59359,-54.27349
2022-12-05 00:24:00+00:00,157.0,14.35,163.0,15.7,12.41,47.59359,-54.27349
2022-12-05 00:34:00+00:00,152.0,11.87,153.0,13.51,12.41,47.59359,-54.27349
2022-12-05 00:44:00+00:00,150.0,13.16,154.0,15.99,12.41,47.59359,-54.27349
2022-12-05 00:54:00+00:00,157.0,12.75,163.0,15.9,12.41,47.59359,-54.27349
2022-12-05 01:04:00+00:00,161.0,13.02,156.0,15.22,12.41,47.59359,-54.27349
2022-12-05 01:14:00+00:00,165.0,11.88,163.0,13.75,12.41,47.59359,-54.27349
2022-12-05 01:24:00+00:00,169.0,10.45,170.0,12.45,12.41,47.59359,-54.27349
2022-12-05 01:34:00+00:00,176.0,9.95,184.0,11.5,12.41,47.59359,-54.27349
2022-12-05 01:44:00+00:00,180.0,9.02,181.0,10.78,12.41,47.59359,-54.27349
2022-12-05 01:54:00+00:00,177.0,9.84,187.0,14.07,12.41,47.59359,-54.27349
2022-12-05 02:04:00+00:00,169.0,12.03,169.0,16.12,12.41,47.59359,-54.27349
2022-12-05 02:14:00+00:00,172.0,9.14,177.0,10.74,12.33,47.59359,-54.27349
2022-12-05 02:24:00+00:00,164.0,11.7,158.0,15.15,12.33,47.59359,-54.27349
2022-12-05 02:34:00+00:00,172.0,9.69,178.0,12.26,12.33,47.59359,-54.27349
2022-12-05 02:44:00+00:00,172.0,10.79,179.0,12.36,12.33,47.59359,-54.27349
2022-12-05 02:54:00+00:00,165.0,8.94,169.0,10.33,12.33,47.59359,-54.27349
2022-12-05 03:04:00+00:00,177.0,9.42,178.0,12.77,12.33,47.59359,-54.27349
2022-12-05 03:14:00+00:00,176.0,8.79,176.0,12.7,12.33,47.59359,-54.27349
2022-12-05 03:24:00+00:00,176.0,8.08,182.0,9.84,12.33,47.59359,-54.27349
2022-12-05 03:34:00+00:00,230.0,5.74,237.0,7.05,12.33,47.59359,-54.27349
2022-12-05 03:44:00+00:00,178.0,5.85,178.0,7.23,12.33,47.59359,-54.27349
2022-12-05 03:54:00+00:00,180.0,7.35,181.0,8.85,12.33,47.59359,-54.27349
2022-12-05 04:04:00+00:00,214.0,5.72,226.0,7.0,12.33,47.59359,-54.27349
2022-12-05 04:14:01+00:00,191.0,6.79,196.0,9.18,12.33,47.59359,-54.27349
2022-12-05 04:24:01+00:00,181.0,6.77,181.0,7.89,12.33,47.59359,-54.27349
2022-12-05 04:34:01+00:00,196.0,8.54,197.0,9.98,12.33,47.59359,-54.27349
2022-12-05 04:44:01+00:00,182.0,6.77,171.0,9.17,12.33,47.59359,-54.27349
2022-12-05 04:54:01+00:00,167.0,5.57,157.0,8.15,12.33,47.59359,-54.27349
2022-12-05 05:04:01+00:00,181.0,1.6,186.0,2.02,12.33,47.59359,-54.27349
2022-12-05 05:14:01+00:00,195.0,1.91,192.0,2.36,12.33,47.59359,-54.27349
2022-12-05 05:24:01+00:00,135.0,0.38,178.0,0.71,12.33,47.59359,-54.27349
2022-12-05 05:34:01+00:00,184.0,2.42,193.0,3.62,12.33,47.59359,-54.27349
2022-12-05 05:44:01+00:00,159.0,3.59,158.0,4.16,12.33,47.59359,-54.27349
2022-12-05 05:54:01+00:00,165.0,3.69,168.0,4.37,12.33,47.59359,-54.27349
2022-12-05 06:04:01+00:00,167.0,4.08,159.0,5.33,12.33,47.59359,-54.27349
2022-12-05 06:14:00+00:00,163.0,2.81,167.0,3.42,12.25,47.59359,-54.27349
2022-12-05 06:24:00+00:00,167.0,2.63,174.0,2.9,12.25,47.59359,-54.27349
2022-12-05 06:34:00+00:00,173.0,2.27,174.0,2.69,12.25,47.59359,-54.27349
2022-12-05 06:44:00+00:00,168.0,4.16,174.0,5.07,12.25,47.59359,-54.27349
2022-12-05 06:54:00+00:00,175.0,4.09,179.0,4.87,12.25,47.59359,-54.27349
2022-12-05 07:04:00+00:00,173.0,6.53,176.0,8.37,12.25,47.59359,-54.27349
2022-12-05 07:14:01+00:00,179.0,5.89,183.0,6.72,12.25,47.59359,-54.27349
2022-12-05 07:24:01+00:00,185.0,6.12,192.0,8.55,12.25,47.59359,-54.27349
2022-12-05 07:34:01+00:00,180.0,3.03,179.0,3.75,12.25,47.59359,-54.27349
2022-12-05 07:44:01+00:00,177.0,4.91,178.0,5.69,12.25,47.59359,-54.27349
2022-12-05 07:54:01+00:00,177.0,4.1,174.0,5.14,12.25,47.59359,-54.27349
2022-12-05 08:04:01+00:00,174.0,3.96,181.0,5.12,12.25,47.59359,-54.27349
2022-12-05 08:14:00+00:00,178.0,5.07,179.0,6.3,12.25,47.59359,-54.27349
2022-12-05 08:24:00+00:00,176.0,6.0,176.0,7.0,12.25,47.59359,-54.27349
2022-12-05 08:34:00+00:00,171.0,5.17,174.0,6.32,12.25,47.59359,-54.27349
2022-12-05 08:44:00+00:00,178.0,3.9,179.0,4.71,12.25,47.59359,-54.27349
2022-12-05 08:54:00+00:00,174.0,4.57,170.0,5.76,12.25,47.59359,-54.27349
2022-12-05 09:04:00+00:00,172.0,5.55,179.0,6.72,12.25,47.59359,-54.27349
2022-12-05 09:14:00+00:00,168.0,5.45,174.0,6.5,12.25,47.59359,-54.27349
2022-12-05 09:24:00+00:00,167.0,5.06,162.0,5.96,12.25,47.59359,-54.27349
2022-12-05 09:34:00+00:00,169.0,6.33,171.0,7.17,12.25,47.59359,-54.27349
2022-12-05 09:44:00+00:00,168.0,6.34,170.0,7.22,12.25,47.59359,-54.27349
2022-12-05 09:54:00+00:00,171.0,7.02,175.0,7.75,12.25,47.59359,-54.27349
2022-12-05 10:04:00+00:00,166.0,6.43,165.0,7.06,12.25,47.59359,-54.27349
2022-12-05 10:14:00+00:00,170.0,6.02,176.0,7.22,12.17,47.59359,-54.27349
2022-12-05 10:24:00+00:00,170.0,6.51,177.0,8.18,12.17,47.59359,-54.27349
2022-12-05 10:34:00+00:00,170.0,6.09,163.0,6.91,12.17,47.59359,-54.27349
2022-12-05 10:44:00+00:00,172.0,6.14,173.0,6.63,12.17,47.59359,-54.27349
2022-12-05 10:54:00+00:00,176.0,6.0,178.0,6.47,12.17,47.59359,-54.27349
2022-12-05 11:04:00+00:00,170.0,5.64,171.0,6.4,12.17,47.59359,-54.27349
2022-12-05 11:14:00+00:00,168.0,6.21,171.0,6.74,12.17,47.59359,-54.27349
2022-12-05 11:24:00+00:00,174.0,5.87,175.0,6.44,12.17,47.59359,-54.27349
2022-12-05 11:34:00+00:00,181.0,5.82,181.0,6.28,12.17,47.59359,-54.27349
2022-12-05 11:44:00+00:00,181.0,7.87,181.0,8.76,12.17,47.59359,-54.27349
2022-12-05 11:54:00+00:00,184.0,8.95,180.0,10.05,12.17,47.59359,-54.27349
2022-12-05 12:04:00+00:00,202.0,7.99,209.0,9.13,12.17,47.59359,-54.27349
2022-12-05 12:14:00+00:00,203.0,8.93,206.0,10.09,12.17,47.59359,-54.27349
2022-12-05 12:24:00+00:00,211.0,8.58,211.0,9.94,12.17,47.59359,-54.27349
2022-12-05 12:34:00+00:00,215.0,8.15,213.0,9.13,12.17,47.59359,-54.27349
2022-12-05 12:44:00+00:00,212.0,7.56,212.0,8.46,12.17,47.59359,-54.27349
2022-12-05 12:54:00+00:00,215.0,6.97,217.0,7.99,12.17,47.59359,-54.27349
2022-12-05 13:04:00+00:00,229.0,5.59,230.0,6.51,12.17,47.59359,-54.27349
2022-12-05 13:14:00+00:00,232.0,4.02,229.0,4.77,12.57,47.59359,-54.27349
2022-12-05 13:24:00+00:00,222.0,3.08,219.0,3.6,12.57,47.59359,-54.27349
2022-12-05 13:34:00+00:00,240.0,4.18,240.0,4.85,12.57,47.59359,-54.27349
2022-12-05 13:44:00+00:00,231.0,3.77,229.0,4.23,12.57,47.59359,-54.27349
2022-12-05 13:54:00+00:00,228.0,3.32,217.0,4.19,12.57,47.59359,-54.27349
2022-12-05 14:04:00+00:00,287.0,3.76,287.0,4.78,12.57,47.59359,-54.27349
2022-12-05 14:14:00+00:00,279.0,2.22,271.0,2.51,12.73,47.59359,-54.27349
2022-12-05 14:24:00+00:00,297.0,1.85,291.0,2.11,12.73,47.59359,-54.27349
2022-12-05 14:34:00+00:00,299.0,1.63,299.0,1.91,12.73,47.59359,-54.27349
2022-12-05 14:44:00+00:00,325.0,1.6,320.0,1.91,12.73,47.59359,-54.27349
2022-12-05 14:54:00+00:00,302.0,1.62,303.0,1.78,12.73,47.59359,-54.27349
2022-12-05 15:04:00+00:00,294.0,1.13,282.0,1.41,12.73,47.59359,-54.27349
2022-12-05 15:14:00+00:00,296.0,1.29,300.0,1.49,12.97,47.59359,-54.27349
2022-12-05 15:24:00+00:00,310.0,2.18,314.0,2.44,12.97,47.59359,-54.27349
2022-12-05 15:34:00+00:00,305.0,2.2,306.0,2.66,12.97,47.59359,-54.27349
2022-12-05 15:44:00+00:00,313.0,1.32,321.0,1.6,12.97,47.59359,-54.27349
2022-12-05 15:54:00+00:00,250.0,0.68,249.0,0.78,12.97,47.59359,-54.27349
2022-12-05 16:04:00+00:00,240.0,0.18,240.0,0.38,12.97,47.59359,-54.27349
2022-12-05 16:14:00+00:00,220.0,0.19,220.0,0.28,13.37,47.59359,-54.27349
2022-12-05 16:24:00+00:00,198.0,0.33,200.0,0.44,13.37,47.59359,-54.27349
2022-12-05 16:34:00+00:00,268.0,0.57,270.0,0.67,13.37,47.59359,-54.27349
2022-12-05 16:44:00+00:00,229.0,0.8,228.0,0.93,13.37,47.59359,-54.27349
2022-12-05 16:54:00+00:00,237.0,0.66,243.0,0.83,13.37,47.59359,-54.27349
2022-12-05 17:04:00+00:00,294.0,0.21,304.0,0.32,13.37,47.59359,-54.27349
2022-12-05 17:14:01+00:00,270.0,0.08,260.0,0.17,12.97,47.59359,-54.27349
2022-12-05 17:24:01+00:00,306.0,0.25,308.0,0.31,12.97,47.59359,-54.27349
2022-12-05 17:34:01+00:00,193.0,1.45,192.0,1.56,12.97,47.59359,-54.27349
2022-12-05 17:44:01+00:00,205.0,1.71,207.0,1.85,12.97,47.59359,-54.27349
2022-12-05 17:54:01+00:00,218.0,1.26,219.0,1.36,12.97,47.59359,-54.27349
2022-12-05 18:04:01+00:00,206.0,1.47,208.0,1.56,12.97,47.59359,-54.27349
2022-12-05 18:14:00+00:00,235.0,1.1,227.0,1.24,12.81,47.59359,-54.27349
2022-12-05 18:24:00+00:00,235.0,0.83,234.0,0.89,12.81,47.59359,-54.27349
2022-12-05 18:34:00+00:00,232.0,0.84,234.0,0.9,12.81,47.59359,-54.27349
2022-12-05 18:44:00+00:00,240.0,0.49,230.0,0.59,12.81,47.59359,-54.27349
2022-12-05 18:54:00+00:00,357.0,2.97,358.0,3.43,12.81,47.59359,-54.27349
2022-12-05 19:04:00+00:00,14.0,3.06,17.0,3.87,12.81,47.59359,-54.27349
2022-12-05 19:14:01+00:00,356.0,5.32,356.0,6.19,12.57,47.59359,-54.27349
2022-12-05 19:24:01+00:00,351.0,5.45,350.0,5.81,12.57,47.59359,-54.27349
2022-12-05 19:34:01+00:00,340.0,4.43,335.0,5.07,12.57,47.59359,-54.27349
2022-12-05 19:44:01+00:00,348.0,5.87,346.0,6.38,12.57,47.59359,-54.27349
2022-12-05 19:54:01+00:00,330.0,4.75,331.0,5.55,12.57,47.59359,-54.27349
2022-12-05 20:04:01+00:00,335.0,4.06,332.0,4.69,12.57,47.59359,-54.27349
2022-12-05 20:14:00+00:00,337.0,4.52,339.0,5.3,12.41,47.59359,-54.27349
2022-12-05 20:24:00+00:00,346.0,4.72,346.0,5.7,12.41,47.59359,-54.27349
2022-12-05 20:34:00+00:00,355.0,5.5,353.0,6.37,12.41,47.59359,-54.27349
2022-12-05 20:44:00+00:00,356.0,6.75,357.0,7.35,12.41,47.59359,-54.27349
2022-12-05 20:54:00+00:00,354.0,6.72,356.0,7.64,12.41,47.59359,-54.27349
2022-12-05 21:04:00+00:00,357.0,6.96,357.0,7.85,12.41,47.59359,-54.27349
2022-12-05 21:14:01+00:00,356.0,7.03,354.0,7.69,12.41,47.59359,-54.27349
2022-12-05 21:24:01+00:00,357.0,6.21,358.0,6.87,12.41,47.59359,-54.27349
2022-12-05 21:34:01+00:00,4.0,5.62,2.0,6.28,12.41,47.59359,-54.27349
2022-12-05 21:44:01+00:00,10.0,5.18,10.0,5.8,12.41,47.59359,-54.27349
2022-12-05 21:54:01+00:00,27.0,6.7,26.0,7.18,12.41,47.59359,-54.27349
2022-12-05 22:04:01+00:00,27.0,6.25,29.0,7.0,12.41,47.59359,-54.27349
2022-12-05 22:14:01+00:00,20.0,6.29,26.0,7.66,12.33,47.59359,-54.27349
2022-12-05 22:24:01+00:00,22.0,7.27,23.0,7.69,12.33,47.59359,-54.27349
2022-12-05 22:34:01+00:00,16.0,6.74,12.0,7.49,12.33,47.59359,-54.27349
2022-12-05 22:44:01+00:00,14.0,6.23,20.0,6.9,12.33,47.59359,-54.27349
2022-12-05 22:54:01+00:00,16.0,5.85,19.0,6.64,12.33,47.59359,-54.27349
2022-12-05 23:04:01+00:00,25.0,6.17,25.0,6.9,12.33,47.59359,-54.27349
2022-12-05 23:14:00+00:00,23.0,6.45,24.0,7.1,12.33,47.59359,-54.27349
2022-12-05 23:24:00+00:00,28.0,7.2,31.0,7.9,12.33,47.59359,-54.27349
2022-12-05 23:34:00+00:00,36.0,7.07,43.0,8.21,12.33,47.59359,-54.27349
2022-12-05 23:44:00+00:00,42.0,8.35,44.0,9.29,12.33,47.59359,-54.27349
2022-12-05 23:54:00+00:00,37.0,8.51,37.0,9.23,12.33,47.59359,-54.27349
